Yankton, SD

2:41 PM CST on February 26, 2017 (GMT -0600)
Gurney Municipal

Weather History for KYKN - September, 2012

Change the Weather History Date:

Monday, September 10, 2012

  Actual Average Record
Temperature  
Mean Temperature 74 °F -  
Max Temperature 91 °F 79 °F 99 °F (1983)
Min Temperature 57 °F 52 °F 40 °F (1959)
Cooling Degree Days 9    
Growing Degree Days 24 (Base 50)    
Moisture  
Dew Point 45 °F    
Average Humidity 38    
Maximum Humidity 63    
Minimum Humidity 18    
Precipitation  
Precipitation 0.00 in - - ()
Sea Level Pressure  
Sea Level Pressure 29.89 in    
Wind  
Wind Speed 15 mph (SSE)    
Max Wind Speed 29 mph    
Max Gust Speed 39 mph    
Visibility 10 miles    
Events      
Averages and records for this station are not official NWS values.
T = Trace of Precipitation, MM = Missing Value Source: NWS Daily Summary

Daily Weather History Graph

Daily Weather History Graph

Search for Another Location

Airport or City:

Trip Planner

Search our weather history database for the weather conditions in past years. The results will help you decide how hot, cold, wet, or windy it might be!

Date:

Astronomy

Sep. 10, 2012 Rise Set
Actual Time 7:04 AM CDT 7:47 PM CDT
Civil Twilight 6:35 AM CDT 8:16 PM CDT
Nautical Twilight 6:01 AM CDT 8:49 PM CDT
Astronomical Twilight 5:26 AM CDT 9:25 PM CDT
Moon 1:20 AM CDT (9/10) 4:23 PM CDT (9/10)
Length of Visible Light 13h 40m
Length of Day
12h 43m
Waning Crescent, 30% of the Moon is Illuminated
Sep 10
Waning Crescent
Sep 15
New
Sep 22
First Quarter
Sep 29
Full
Oct 8
Last Quarter

Hourly Weather History & Observations

Time (CDT) Temp. Dew Point Humidity Pressure Visibility Wind Dir Wind Speed Gust Speed Precip Events Conditions
12:15 AM 60.8 °F 42.8 °F 52% 30.06 in 10.0 mi South 10.4 mph - N/A   Clear
12:35 AM 60.8 °F 42.8 °F 52% 30.06 in 10.0 mi SSE 11.5 mph - N/A   Clear
12:55 AM 60.8 °F 42.8 °F 52% 30.05 in 10.0 mi SSE 11.5 mph - N/A   Clear
1:15 AM 60.8 °F 42.8 °F 52% 30.05 in 10.0 mi SSE 11.5 mph - N/A   Clear
1:35 AM 60.8 °F 42.8 °F 52% 30.05 in 10.0 mi South 9.2 mph - N/A   Clear
1:55 AM 60.8 °F 42.8 °F 52% 30.04 in 10.0 mi South 12.7 mph - N/A   Clear
2:15 AM 59.0 °F 42.8 °F 55% 30.04 in 10.0 mi SSE 6.9 mph - N/A   Clear
2:35 AM 60.8 °F 42.8 °F 52% 30.04 in 10.0 mi South 11.5 mph - N/A   Clear
2:55 AM 60.8 °F 42.8 °F 52% 30.03 in 10.0 mi South 12.7 mph - N/A   Clear
3:15 AM 60.8 °F 42.8 °F 52% 30.02 in 10.0 mi South 10.4 mph - N/A   Clear
3:35 AM 60.8 °F 42.8 °F 52% 30.02 in 10.0 mi South 10.4 mph - N/A   Clear
3:55 AM 57.2 °F 42.8 °F 59% 30.02 in 10.0 mi SSE 5.8 mph - N/A   Clear
4:15 AM 57.2 °F 42.8 °F 59% 30.01 in 10.0 mi SE 6.9 mph - N/A   Clear
4:35 AM 57.2 °F 42.8 °F 59% 30.01 in 10.0 mi SE 6.9 mph - N/A   Clear
4:55 AM 57.2 °F 44.6 °F 63% 30.01 in 10.0 mi SSE 9.2 mph - N/A   Clear
5:15 AM 57.2 °F 44.6 °F 63% 30.00 in 10.0 mi SSE 8.1 mph - N/A   Clear
5:35 AM 57.2 °F 44.6 °F 63% 29.99 in 10.0 mi SSE 6.9 mph - N/A   Clear
5:55 AM 59.0 °F 44.6 °F 59% 30.00 in 10.0 mi SSE 10.4 mph - N/A   Clear
6:15 AM 60.8 °F 44.6 °F 55% 29.99 in 10.0 mi South 13.8 mph - N/A   Clear
6:35 AM 60.8 °F 44.6 °F 55% 29.99 in 10.0 mi SSE 10.4 mph - N/A   Clear
6:55 AM 60.8 °F 44.6 °F 55% 29.99 in 10.0 mi South 11.5 mph - N/A   Clear
7:15 AM 60.8 °F 44.6 °F 55% 29.99 in 10.0 mi South 13.8 mph 19.6 mph N/A   Clear
7:35 AM 60.8 °F 44.6 °F 55% 29.99 in 10.0 mi South 13.8 mph 20.7 mph N/A   Clear
7:55 AM 60.8 °F 44.6 °F 55% 29.98 in 10.0 mi SSE 11.5 mph - N/A   Clear
8:15 AM 62.6 °F 46.4 °F 55% 29.98 in 10.0 mi SSE 9.2 mph 17.3 mph N/A   Clear
8:35 AM 64.4 °F 46.4 °F 52% 29.97 in 10.0 mi South 12.7 mph - N/A   Clear
8:55 AM 64.4 °F 46.4 °F 52% 29.96 in 10.0 mi SSE 9.2 mph - N/A   Clear
9:15 AM 66.2 °F 46.4 °F 49% 29.95 in 10.0 mi South 18.4 mph 26.5 mph N/A   Clear
9:35 AM 68.0 °F 46.4 °F 46% 29.94 in 10.0 mi South 20.7 mph 24.2 mph N/A   Clear
9:55 AM 69.8 °F 46.4 °F 43% 29.93 in 10.0 mi South 26.5 mph 32.2 mph N/A   Clear
10:15 AM 71.6 °F 46.4 °F 41% 29.93 in 10.0 mi South 25.3 mph 29.9 mph N/A   Clear
10:35 AM 73.4 °F 46.4 °F 38% 29.92 in 10.0 mi South 26.5 mph 31.1 mph N/A   Clear
10:55 AM 73.4 °F 44.6 °F 36% 29.92 in 10.0 mi South 24.2 mph 29.9 mph N/A   Clear
11:15 AM 75.2 °F 46.4 °F 36% 29.92 in 10.0 mi SSE 20.7 mph 28.8 mph N/A   Clear
11:35 AM 77.0 °F 44.6 °F 32% 29.91 in 10.0 mi South 26.5 mph 32.2 mph N/A   Clear
11:55 AM 78.8 °F 46.4 °F 32% 29.91 in 10.0 mi South 21.9 mph 33.4 mph N/A   Clear
12:15 PM 78.8 °F 46.4 °F 32% 29.90 in 10.0 mi South 25.3 mph 29.9 mph N/A   Clear
12:35 PM 80.6 °F 46.4 °F 30% 29.89 in 10.0 mi South 20.7 mph 31.1 mph N/A   Clear
12:55 PM 82.4 °F 46.4 °F 28% 29.88 in 10.0 mi South 25.3 mph 34.5 mph N/A   Clear
1:15 PM 82.4 °F 46.4 °F 28% 29.87 in 10.0 mi SSE 23.0 mph 29.9 mph N/A   Clear
1:35 PM 84.2 °F 46.4 °F 27% 29.86 in 10.0 mi SSE 21.9 mph 38.0 mph N/A   Clear
1:55 PM 86.0 °F 48.2 °F 27% 29.84 in 10.0 mi South 24.2 mph 29.9 mph N/A   Clear
2:15 PM 86.0 °F 46.4 °F 25% 29.83 in 10.0 mi South 21.9 mph 32.2 mph N/A   Clear
2:35 PM 87.8 °F 46.4 °F 24% 29.82 in 10.0 mi South 26.5 mph 35.7 mph N/A   Clear
2:55 PM 87.8 °F 46.4 °F 24% 29.80 in 10.0 mi South 24.2 mph 33.4 mph N/A   Clear
3:15 PM 87.8 °F 46.4 °F 24% 29.79 in 10.0 mi South 27.6 mph 36.8 mph N/A   Clear
3:35 PM 89.6 °F 44.6 °F 21% 29.79 in 10.0 mi South 28.8 mph 38.0 mph N/A   Clear
3:55 PM 89.6 °F 44.6 °F 21% 29.78 in 10.0 mi South 26.5 mph 34.5 mph N/A   Clear
4:15 PM 91.4 °F 44.6 °F 20% 29.77 in 10.0 mi South 26.5 mph 32.2 mph N/A   Clear
4:35 PM 91.4 °F 44.6 °F 20% 29.77 in 10.0 mi South 20.7 mph 34.5 mph N/A   Clear
4:55 PM 91.4 °F 42.8 °F 18% 29.76 in 10.0 mi South 24.2 mph 35.7 mph N/A   Clear
5:15 PM 91.4 °F 42.8 °F 18% 29.76 in 10.0 mi South 24.2 mph 34.5 mph N/A   Clear
5:35 PM 91.4 °F 42.8 °F 18% 29.76 in 10.0 mi South 20.7 mph 32.2 mph N/A   Clear
5:55 PM 91.4 °F 42.8 °F 18% 29.76 in 10.0 mi South 26.5 mph 39.1 mph N/A   Clear
6:15 PM 89.6 °F 42.8 °F 20% 29.76 in 10.0 mi South 21.9 mph 34.5 mph N/A   Clear
6:35 PM 89.6 °F 44.6 °F 21% 29.76 in 10.0 mi South 18.4 mph 33.4 mph N/A   Clear
6:55 PM 87.8 °F 44.6 °F 22% 29.76 in 10.0 mi South 17.3 mph 23.0 mph N/A   Clear
7:15 PM 87.8 °F 44.6 °F 22% 29.75 in 10.0 mi South 16.1 mph 20.7 mph N/A   Clear
7:35 PM 87.8 °F 44.6 °F 22% 29.75 in 10.0 mi South 17.3 mph 24.2 mph N/A   Clear
7:55 PM 84.2 °F 44.6 °F 25% 29.75 in 10.0 mi SSE 17.3 mph - N/A   Clear
8:15 PM 84.2 °F 44.6 °F 25% 29.75 in 10.0 mi SSE 15.0 mph - N/A   Clear
8:35 PM 82.4 °F 44.6 °F 26% 29.75 in 10.0 mi SSE 15.0 mph - N/A   Clear
8:55 PM 82.4 °F 44.6 °F 26% 29.76 in 10.0 mi SSE 19.6 mph 25.3 mph N/A   Clear
9:15 PM 80.6 °F 44.6 °F 28% 29.76 in 10.0 mi SSE 16.1 mph - N/A   Clear
9:35 PM 80.6 °F 44.6 °F 28% 29.77 in 10.0 mi South 13.8 mph 20.7 mph N/A   Clear
9:55 PM 78.8 °F 44.6 °F 30% 29.77 in 10.0 mi SSE 15.0 mph 18.4 mph N/A   Clear
10:15 PM 78.8 °F 44.6 °F 30% 29.77 in 10.0 mi SSE 13.8 mph 21.9 mph N/A   Clear
10:35 PM 78.8 °F 44.6 °F 30% 29.77 in 10.0 mi South 12.7 mph - N/A   Clear
10:55 PM 78.8 °F 44.6 °F 30% 29.77 in 10.0 mi South 13.8 mph 20.7 mph N/A   Clear
11:15 PM 78.8 °F 44.6 °F 30% 29.77 in 10.0 mi South 16.1 mph 23.0 mph N/A   Clear
11:35 PM 78.8 °F 44.6 °F 30% 29.76 in 10.0 mi South 18.4 mph 24.2 mph N/A   Clear
11:55 PM 78.8 °F 44.6 °F 30% 29.76 in 10.0 mi South 18.4 mph 28.8 mph N/A   Clear